User: anonymous   Login
Location: Unspecified
(0.0000°N, 0.0000°E)
Time: 19:42:42
(UTC+00:00)
Language:

HEATHSAT - Orbit

View from above orbital plane
View from above orbital plane
View from above satellite
View from above satellite

Ground track
Ground track

The orbit data is extracted from the following two-line orbital elements,

1 22827U 93061E   17268.95418459 +.00000034 +00000-0 +30133-4 0  9990
2 22827 098.8266 241.7326 0008949 000.3274 068.7999 14.31223646252204
Epoch (UTC): 25 September 2017 22:54:01
Eccentricity: 0.0008949
inclination: 98.8266°
perigee height: 781 km
apogee height: 794 km
right ascension of ascending node: 241.7326°
argument of perigee: 0.3274°
revolutions per day: 14.31223646
mean anomaly at epoch: 68.7999°
orbit number at epoch: 25220

The dashed part of the orbit path shows where the satellite is in the earth's shadow,  

DLR